GFSGL_700_temp_159.txt.gz
Temp
14 13 13 13 12 12 11 11 10 10 8 9 8 8 8 8 7 7 6 6 6 7 7 6 6 6 6 6 5 5 5 5 5 7 6 6 7 7 6 7 9 9 10
14 13 13 12 11 11 10 10 10 9 7 8 8 8 8 8 7 6 6 6 6 6 6 6 6 5 5 5 5 5 4 4 5 6 7 6 5 5 4 5 6 8 9
14 14 13 13 12 10 10 10 10 9 9 8 8 8 8 7 6 5 6 6 6 6 6 5 5 5 5 5 5 4 4 5 4 4 6 6 5 5 4 3 3 5 6
15 15 14 13 12 11 10 10 9 9 8 8 7 8 8 6 5 6 6 6 5 5 5 4 4 5 5 5 4 3 3 3 4 4 4 5 5 4 5 5 4 4 5
15 15 14 13 13 11 11 10 9 9 8 7 7 8 6 6 6 6 5 5 5 4 4 4 4 4 5 4 3 3 3 2 3 4 5 4 4 5 4 4 4 4 5
15 14 14 13 13 13 11 10 10 9 8 7 8 7 6 5 5 5 4 4 4 3 4 4 4 4 5 5 4 3 1 1 3 3 3 4 4 4 4 4 4 4 5
15 14 14 13 13 13 12 10 10 9 8 8 7 6 5 5 5 5 4 4 3 3 3 4 4 4 5 5 5 4 3 2 3 3 3 4 5 4 4 4 4 4 3
14 13 13 12 12 11 11 9 8 8 8 7 7 5 5 5 5 4 3 3 2 3 3 3 4 4 5 5 4 3 2 2 3 3 3 4 4 5 4 4 4 4 4
13 12 12 11 11 11 10 9 8 7 7 7 6 5 5 4 3 3 3 2 2 2 3 3 3 4 4 5 4 3 2 2 3 3 4 4 4 5 4 4 3 3 4
12 12 12 12 11 10 9 7 7 6 6 6 5 4 4 3 3 2 3 2 2 2 3 3 3 4 4 4 4 2 2 3 1 3 4 4 4 4 4 4 4 3 3
12 12 11 11 10 9 8 7 6 6 6 5 5 4 4 4 3 2 2 2 2 2 2 3 3 4 4 4 3 2 1 1 2 1 2 4 4 4 3 3 3 3 4
11 11 11 10 9 7 7 6 6 6 6 5 5 4 4 4 2 2 1 1 2 2 2 3 3 3 4 4 3 2 1 0 1 1 1 3 3 4 3 4 4 4 4
11 10 11 9 8 7 7 6 5 6 5 5 4 4 4 3 2 1 1 1 2 2 2 3 3 3 4 3 2 2 2 0 1 1 2 1 1 2 4 4 4 3 4
11 11 11 8 7 7 5 6 5 5 4 4 4 4 3 2 2 1 1 1 1 2 2 3 3 3 3 3 3 2 2 2 1 1 0 1 -0 2 2 3 4 4 4
12 11 10 8 7 5 5 5 5 4 4 4 3 3 3 2 2 2 1 1 1 2 2 3 3 3 2 2 2 2 2 2 1 2 1 1 1 -0 0 1 2 2 2
11 10 9 8 7 5 5 4 4 4 3 3 3 2 2 2 2 1 1 1 1 2 2 3 3 3 2 2 2 2 2 2 2 2 2 2 2 1 0 1 0 1 1
10 9 8 7 5 4 5 4 4 3 3 3 2 2 2 2 1 1 1 1 1 2 2 2 3 2 2 2 2 2 2 2 2 2 2 2 2 2 2 2 2 2 2
9 8 6 6 5 5 5 4 3 2 2 2 2 2 2 1 1 1 0 1 1 2 2 2 2 2 2 2 2 2 2 2 2 2 2 2 2 2 2 2 2 2 2
7 6 5 5 4 4 3 3 3 2 2 2 2 1 1 1 0 -0 1 0 1 1 1 2 2 2 2 2 2 2 2 2 2 2 2 2 2 2 2 2 3 3 2
5 4 4 4 4 3 3 3 3 2 2 1 2 1 1 0 -0 0 0 0 1 1 1 1 1 2 1 1 1 1 2 2 2 2 2 2 2 2 2 2 2 3 3
3 3 3 3 3 3 3 2 2 2 2 1 1 1 1 -0 -1 -0 -0 0 0 1 1 1 1 1 1 1 1 1 1 1 1 1 2 2 2 2 2 2 2 2 2
3 3 3 3 3 3 2 2 2 2 1 1 1 1 0 -1 -0 -0 0 0 0 0 0 1 1 1 1 1 1 1 1 1 1 1 2 2 2 2 2 2 2 2 2
3 3 3 3 3 3 2 1 1 1 1 1 1 0 -1 -0 -0 -0 0 0 -0 -0 0 0 0 0 0 0 0 0 1 1 1 1 1 1 2 2 2 2 2 2 2
2 2 2 2 2 2 1 0 1 1 1 -0 -0 -0 -1 -0 -1 -1 -0 -0 -0 -0 -0 -0 -1 -1 -0 -0 -0 -0 -0 0 0 1 1 1 1 1 2 2 2 2 2
2 2 2 1 1 1 1 0 0 0 -0 -1 -0 -0 -0 -1 -1 -1 -1 -1 -0 -0 -1 -1 -1 -1 -1 -1 -1 -1 -1 -0 -0 0 0 0 1 1 1 1 1 1 1
2 2 2 1 0 0 0 -0 -0 -1 -1 -0 -1 -1 -1 -1 -1 -1 -1 -1 -1 -1 -1 -1 -1 -1 -1 -1 -1 -1 -1 -0 -0 -0 0 1 1 1 1 1 1 0 0

GFSGL_700_temp_162.txt.gz
Temp
15 15 15 14 13 12 12 12 12 11 11 10 9 8 9 9 8 8 7 6 6 6 6 6 6 6 6 5 5 5 5 5 6 6 6 5 5 5 6 5 6 6 6
15 15 14 14 13 13 12 12 11 11 10 9 8 8 8 8 8 7 6 6 6 6 6 5 5 5 5 5 5 5 5 5 5 6 5 6 5 4 5 5 5 5 5
15 15 14 14 13 13 12 11 11 10 10 9 8 8 7 8 7 6 6 6 6 6 5 5 5 5 5 5 5 5 5 5 4 4 5 4 4 4 4 5 5 5 3
15 15 15 14 14 14 13 12 11 10 10 9 8 8 8 7 7 6 6 6 6 5 5 5 4 4 4 4 4 5 4 4 4 3 2 3 3 4 4 4 4 5 5
16 15 15 15 14 14 13 13 12 11 10 9 8 8 7 7 6 6 6 6 5 5 4 3 3 3 4 4 4 4 3 3 2 3 2 3 4 4 4 4 4 4 4
16 15 15 15 14 14 13 12 12 10 9 9 8 7 7 6 6 6 5 5 5 4 4 3 3 3 4 4 4 3 3 3 2 2 2 4 4 4 4 4 4 4 4
15 15 15 15 14 14 13 12 11 10 9 9 8 7 7 7 6 5 5 4 4 4 3 2 3 3 4 4 4 4 4 2 1 2 2 3 4 4 4 3 5 4 4
15 15 14 14 13 13 12 11 10 10 9 8 7 7 7 6 5 5 4 4 4 3 2 2 3 3 4 4 4 4 3 1 1 2 1 3 4 4 4 5 4 4 4
15 14 13 13 12 12 11 11 9 9 8 7 7 7 7 6 5 4 4 4 3 2 2 2 3 4 4 4 3 4 3 1 1 2 1 3 3 4 5 4 4 3 3
14 13 13 12 12 12 11 10 9 8 7 7 7 7 6 5 4 4 4 3 3 2 2 3 4 4 3 3 3 4 2 1 1 1 1 2 3 4 3 3 3 3 3
13 12 12 11 11 11 11 11 8 7 6 6 6 5 5 4 4 4 4 3 3 2 2 2 3 3 3 3 3 3 2 1 0 1 1 1 2 3 3 3 3 4 4
12 12 11 11 12 11 12 12 8 6 6 6 5 4 4 4 4 4 4 3 2 2 2 3 3 3 3 3 3 3 2 1 1 1 0 0 2 3 3 4 4 4 4
12 11 11 11 11 10 11 10 8 6 6 5 5 5 4 4 4 4 4 3 2 2 2 3 3 3 3 3 3 3 2 2 2 1 0 0 0 1 2 3 3 3 4
11 11 11 11 10 10 11 8 8 7 5 5 5 4 3 3 3 4 3 2 2 2 2 3 3 3 3 3 2 2 2 2 2 2 1 -0 0 0 -0 1 2 1 2
10 10 9 9 8 8 7 7 6 6 5 4 4 4 3 3 3 3 2 2 1 1 2 3 3 3 3 3 2 2 2 3 2 2 2 2 1 1 0 0 0 1 1
9 9 8 7 8 7 6 7 5 5 4 3 4 3 3 3 2 2 2 1 1 1 2 2 2 2 2 2 2 2 2 2 2 2 2 2 2 2 2 2 2 1 1
9 9 9 7 7 8 6 6 5 4 4 3 3 3 3 2 2 2 2 1 1 1 2 2 2 2 2 2 2 2 2 2 2 2 2 2 2 2 2 2 2 2 2
7 7 8 8 7 6 6 6 4 3 3 3 3 3 2 2 2 2 1 1 1 1 2 2 2 2 2 2 2 2 2 2 2 2 2 2 2 2 2 2 2 2 2
8 7 7 7 6 6 5 4 4 3 4 3 2 2 2 2 1 1 1 1 0 1 1 2 2 2 2 2 2 2 2 2 2 2 2 2 2 2 2 2 2 2 2
7 7 6 6 6 5 4 4 4 3 3 2 2 2 2 1 1 0 0 0 1 1 1 1 2 2 1 2 2 2 2 2 2 2 2 2 2 2 2 2 2 2 2
6 6 5 5 4 4 4 4 3 3 2 2 1 1 1 1 0 0 0 0 1 1 1 1 1 1 1 2 1 1 1 1 1 2 2 2 2 2 2 2 2 2 2
5 5 4 4 4 4 4 3 2 2 2 1 1 1 1 0 0 -0 0 0 1 1 1 1 1 1 1 1 1 1 1 1 1 1 1 1 2 2 2 2 2 2 2
4 3 3 3 3 4 3 3 2 2 1 1 1 1 0 -0 -0 -0 -1 0 1 1 1 1 0 0 1 1 0 1 1 1 1 1 1 1 1 1 2 2 2 2 2
3 3 3 3 3 3 2 2 1 1 1 1 1 1 0 0 -0 -0 -0 0 0 0 0 0 0 0 -0 -0 -0 0 0 0 1 1 1 1 1 1 1 1 1 1 1
3 3 3 3 2 2 1 1 0 1 1 1 0 -0 -0 -1 -0 -0 -0 0 0 -0 -0 -0 -0 -0 -0 -0 -0 -0 -0 -0 0 0 1 1 1 1 1 1 1 1 1
3 2 2 2 2 1 2 1 1 0 0 0 -1 -0 -0 -1 -1 -0 -0 -0 -0 -0 -0 -0 -0 -1 -1 -1 -0 -0 -0 -0 -0 0 0 1 1 1 1 1 1 0 0

GFSGL_700_temp_165.txt.gz
Temp
15 15 15 15 15 14 14 13 12 12 12 11 10 10 9 9 8 9 8 8 8 7 6 6 6 6 5 5 4 5 4 5 5 6 6 6 5 3 3 4 5 4 5
16 15 15 15 15 15 14 13 13 12 11 11 10 11 9 8 8 8 8 8 8 7 7 7 6 6 5 5 5 4 4 5 5 5 4 5 4 3 3 3 4 4 5
16 16 16 15 15 14 13 13 13 12 11 10 10 10 8 8 8 8 8 8 7 6 6 6 6 5 5 5 4 5 4 5 5 4 4 4 4 3 4 4 3 4 4
16 16 15 15 15 14 14 14 13 13 12 11 10 9 8 8 8 8 8 8 7 6 6 5 5 4 4 4 3 4 4 4 4 4 3 4 4 4 3 4 5 4 5
17 16 15 15 15 15 14 14 13 13 12 11 10 9 8 8 8 8 8 7 6 6 5 4 4 4 3 4 4 3 3 4 3 2 3 3 5 3 3 4 4 5 5
17 16 16 16 15 15 14 14 14 13 12 10 10 9 9 9 8 8 7 6 6 5 5 4 4 3 3 3 4 3 3 2 1 1 1 3 3 2 3 4 4 3 4
17 17 16 16 15 15 14 14 13 13 12 11 10 9 8 8 7 7 6 6 5 5 4 4 3 2 3 4 4 3 3 2 1 0 1 1 1 2 3 4 4 4 4
17 16 16 15 15 14 14 13 13 12 12 11 10 9 8 8 7 6 6 5 5 5 4 3 3 2 3 4 4 4 3 3 2 0 0 -0 0 2 3 3 4 4 3
16 16 15 15 15 14 13 13 12 12 12 12 10 8 7 7 6 6 5 5 5 4 3 2 3 3 4 4 4 4 3 3 2 -0 -0 -0 0 2 3 3 3 4 3
16 15 15 14 13 13 12 12 12 12 11 10 9 8 7 7 6 5 5 5 4 3 2 2 3 3 4 4 4 3 3 3 3 1 -0 -0 0 2 3 3 3 3 4
15 15 14 13 12 12 12 11 11 10 11 11 8 7 7 6 5 5 4 4 4 3 2 2 3 3 3 4 3 3 3 3 2 1 -1 -0 -0 1 2 3 3 3 3
14 13 12 12 12 12 12 11 10 8 8 8 7 7 6 5 5 4 4 4 4 3 3 3 3 3 3 3 3 3 3 2 2 2 1 0 -1 0 1 2 2 3 3
12 12 12 13 11 11 11 9 8 7 6 6 5 6 5 5 5 4 4 4 3 3 3 3 4 3 3 3 3 3 2 2 2 2 2 1 1 0 -1 0 1 2 2
13 12 11 11 10 10 10 9 9 7 6 6 5 4 4 4 5 3 4 4 3 3 3 3 4 3 3 3 3 2 2 2 2 2 2 2 2 1 -0 1 0 1 2
11 11 10 10 10 9 8 8 8 8 6 6 6 4 4 4 4 3 3 3 3 2 2 3 3 3 3 3 2 2 2 2 2 2 2 2 2 2 2 1 1 0 1
10 10 9 8 8 7 7 6 7 6 5 5 4 4 3 3 3 3 3 3 2 2 2 2 2 2 2 2 2 2 2 2 2 2 2 2 2 2 2 2 2 2 1
10 10 9 9 8 8 8 7 6 5 5 4 4 4 3 3 3 3 3 2 2 2 2 2 2 2 2 2 2 2 2 3 3 3 3 3 3 3 2 2 3 2 2
10 9 9 9 9 8 7 6 5 4 3 4 3 3 3 3 3 3 2 2 2 2 1 2 2 2 2 2 2 2 2 3 2 2 3 3 2 3 3 3 3 3 2
9 9 8 8 8 7 6 5 4 4 4 4 4 3 3 2 2 2 2 2 1 1 1 2 2 2 2 2 2 2 2 2 2 2 2 3 3 3 3 3 3 3 2
8 7 7 7 6 5 5 4 4 3 3 4 3 3 2 2 2 2 1 1 1 1 2 1 2 2 2 2 1 1 2 2 2 2 2 2 2 2 2 3 3 3 3
6 7 7 6 3 2 4 3 4 3 3 3 3 2 2 2 2 1 0 1 1 1 1 1 2 2 2 1 1 1 1 1 1 2 2 2 2 2 2 2 2 2 2
4 3 5 3 2 2 3 2 3 2 3 2 2 2 2 2 1 0 0 0 1 1 1 1 1 1 1 1 1 1 1 1 1 1 1 1 2 2 2 2 2 2 2
3 2 2 3 2 2 2 1 3 2 2 2 2 2 2 1 -0 -0 -0 -0 0 1 1 1 1 1 1 0 0 0 0 1 1 1 1 1 1 2 2 2 2 2 2
1 2 2 2 2 1 3 3 3 3 2 2 1 1 1 1 0 -0 -0 0 1 1 1 1 1 0 0 0 0 0 0 0 1 1 1 1 1 2 2 2 1 1 1
1 1 1 1 2 2 3 2 1 1 2 1 1 1 0 -0 -0 -0 -0 0 0 0 0 1 0 0 0 0 0 -0 0 0 0 1 1 1 1 1 1 1 1 1 1
2 3 3 3 2 1 2 1 1 1 1 1 1 1 0 0 -0 -0 -0 0 0 0 0 0 0 0 -0 -0 -0 -0 0 0 0 1 1 1 1 1 1 1 1 1 0

GFSGL_700_temp_168.txt.gz
Temp
16 16 15 15 15 15 15 15 14 14 13 12 12 12 11 10 10 10 9 8 8 8 8 8 7 7 7 6 6 5 4 4 5 5 5 6 6 5 5 4 5 5 4
16 16 16 15 15 15 15 14 14 14 13 13 12 11 11 10 9 9 8 8 8 8 8 7 6 6 6 5 5 4 4 4 4 5 5 5 5 4 4 4 5 4 4
17 16 16 16 15 15 15 15 14 13 13 12 12 12 11 9 9 9 9 8 7 7 7 6 6 6 6 5 5 4 4 4 4 4 4 4 2 2 4 5 3 4 4
17 17 16 16 16 16 15 14 14 14 13 13 13 12 10 9 9 9 8 8 7 7 7 6 6 5 5 5 4 4 4 4 4 4 3 2 2 2 4 3 4 3 4
18 18 17 16 16 15 15 14 14 14 13 13 12 12 11 11 10 9 8 7 7 7 6 6 5 5 5 4 4 4 4 3 4 3 2 1 2 3 2 2 2 4 4
18 18 17 17 16 16 15 15 14 14 14 13 13 13 12 11 10 9 7 7 7 6 6 5 5 4 4 3 3 3 3 3 3 2 1 -0 1 1 1 2 2 3 4
18 17 17 16 16 16 15 15 15 14 13 13 12 11 11 10 9 8 7 7 7 6 5 5 4 4 4 3 3 4 3 3 2 2 1 -0 -0 -0 1 2 3 3 3
18 17 17 16 16 15 14 14 13 13 12 12 11 10 10 9 8 7 6 6 6 5 5 4 5 4 3 4 4 4 3 3 3 2 1 -0 -1 -0 -0 1 2 3 3
17 17 16 15 14 14 13 13 13 12 11 11 11 9 7 7 7 6 6 5 5 4 4 5 4 4 4 4 4 4 3 3 3 2 1 -0 -0 -0 0 2 3 3 3
17 16 16 14 14 13 13 12 12 11 11 10 9 8 7 6 6 5 5 5 4 4 4 4 4 3 3 4 4 4 4 3 3 3 2 2 1 -0 -1 1 2 3 3
16 15 14 13 13 14 13 12 12 13 12 11 9 10 9 7 7 5 5 4 4 4 4 3 3 3 3 4 3 4 4 4 3 3 3 2 1 1 -1 -0 1 2 3
15 14 13 13 14 12 13 13 11 11 10 9 7 7 7 7 6 5 5 4 4 4 3 3 3 3 3 4 3 4 4 3 3 3 3 2 2 2 0 -0 0 1 2
14 13 13 13 12 12 10 11 10 9 9 7 6 6 7 7 5 5 5 4 4 3 3 2 3 3 3 3 4 4 4 3 3 3 3 3 2 2 1 0 -0 -0 1
13 13 12 13 12 11 10 10 9 9 9 7 6 6 5 5 5 4 4 4 3 3 2 3 3 3 4 3 4 4 4 3 3 3 3 2 2 2 2 2 1 -0 1
12 12 11 11 10 10 10 9 9 8 7 7 7 5 5 4 4 3 4 4 4 3 2 2 3 3 3 3 3 4 3 3 3 3 3 3 3 3 2 2 1 1 1
11 10 10 10 10 10 10 9 9 8 7 6 6 5 4 4 3 4 3 3 2 2 2 2 3 3 3 3 3 3 3 3 2 3 3 3 3 3 3 2 2 1 1
10 10 10 10 11 11 9 8 9 8 7 5 5 4 4 4 4 4 3 3 2 2 2 2 3 3 3 3 3 3 3 3 2 2 3 3 3 3 3 3 3 2 2
10 10 10 10 10 9 8 8 9 7 7 5 4 4 3 3 3 3 2 2 2 2 2 2 3 3 3 3 3 2 2 2 2 2 2 3 3 3 3 3 3 3 2
10 10 10 10 10 9 8 7 5 5 6 4 4 4 3 3 3 2 1 1 1 1 2 3 3 2 3 2 2 2 2 2 2 2 2 2 2 3 3 3 3 3 3
9 10 10 9 7 7 7 4 4 3 4 4 4 4 3 2 2 2 1 1 1 1 2 2 2 2 2 2 2 2 2 2 2 2 2 2 2 2 3 3 3 3 3
9 8 8 6 6 6 5 3 4 3 3 4 3 3 3 2 2 1 2 1 1 1 2 2 2 2 2 2 2 1 1 1 1 1 2 2 2 2 2 2 2 2 3
6 7 5 5 3 3 3 2 2 3 3 4 4 2 2 2 1 1 1 0 0 1 2 2 2 2 2 1 1 1 1 1 1 1 1 1 2 2 2 2 2 2 2
5 3 3 3 3 3 3 3 3 1 1 2 3 1 2 1 1 1 1 0 0 1 2 2 2 1 1 1 1 0 0 1 1 1 1 1 1 2 2 2 2 2 2
2 2 3 2 2 2 2 2 2 2 3 2 1 1 1 1 1 1 -0 0 1 1 1 1 1 1 1 1 1 1 0 0 1 1 1 1 1 2 2 2 2 2 1
3 2 2 2 3 1 2 2 2 2 1 2 2 1 1 1 1 0 0 0 1 1 1 1 1 1 1 1 0 0 0 0 1 1 1 1 1 1 1 1 1 1 1
2 2 2 2 2 2 2 2 2 2 2 1 1 1 1 0 -0 -1 -0 0 1 1 1 1 1 1 1 0 0 0 0 0 0 0 1 1 1 1 1 1 1 1 1

GFSGL_700_temp_171.txt.gz
Temp
16 16 16 15 15 15 15 14 14 14 13 13 13 13 12 11 10 10 10 10 9 9 7 7 7 7 6 6 6 5 5 4 5 5 5 5 5 5 5 4 4 5 6
17 16 16 16 15 15 15 15 15 14 14 14 13 13 12 11 11 10 10 9 8 8 8 7 6 6 6 5 5 5 4 4 4 5 5 4 4 4 4 4 4 4 2
18 17 16 16 16 16 15 15 15 14 14 14 13 12 12 11 10 9 10 9 9 8 7 7 6 6 5 5 5 4 3 4 4 4 4 4 3 3 3 4 2 2 2
18 18 17 16 16 16 15 15 15 15 14 13 13 12 11 11 10 9 9 8 8 7 7 6 6 5 5 5 4 3 4 4 4 4 4 3 3 2 2 1 2 2 3
18 18 18 17 16 16 16 15 15 14 13 13 12 12 11 10 10 9 9 8 7 6 6 6 5 5 4 4 3 3 3 4 4 4 3 2 2 2 2 1 2 2 3
17 18 18 18 17 15 15 14 14 14 13 12 12 11 11 11 10 9 8 7 7 6 5 5 4 4 4 3 3 3 3 4 4 4 3 2 2 1 1 1 1 3 3
18 18 18 17 16 15 14 14 14 13 13 13 12 11 11 11 10 9 9 7 6 5 5 5 5 4 3 3 3 4 4 3 3 3 3 2 3 1 1 1 1 3 3
16 16 17 17 16 15 14 14 13 13 13 12 11 12 11 11 10 8 8 6 6 5 5 5 5 4 4 4 4 4 4 3 3 3 2 2 2 2 1 -1 1 3 3
17 16 17 16 16 14 14 13 13 13 13 12 12 12 11 10 8 7 6 6 5 5 5 5 4 4 3 3 4 3 3 3 3 2 2 1 2 2 -0 0 1 3 4
18 17 17 16 15 14 13 13 13 13 11 12 10 10 10 8 7 6 6 6 5 4 5 4 4 3 3 3 3 4 4 3 3 3 2 2 2 2 1 -0 0 1 2
17 17 16 15 14 13 13 14 13 12 12 10 10 9 8 7 7 7 6 5 4 4 4 4 4 3 3 3 3 4 4 4 3 3 3 3 2 3 1 -1 -0 -0 2
17 17 15 14 13 13 13 13 13 12 11 10 9 8 7 6 6 7 5 5 4 3 3 4 3 3 3 3 3 3 4 4 3 3 3 4 3 3 2 1 0 -0 0
16 15 14 13 13 13 13 12 10 11 10 10 9 8 8 7 5 4 4 4 4 3 3 3 3 3 3 3 4 3 3 3 3 3 3 4 3 3 1 0 0 -0 -0
14 13 12 12 12 12 11 10 11 10 10 9 8 7 7 7 4 4 4 4 3 3 3 3 3 3 3 4 4 3 3 3 3 3 3 3 3 3 3 2 1 0 1
12 11 11 12 11 11 10 10 10 10 9 8 7 6 5 5 4 3 3 4 3 3 3 3 3 3 3 3 3 3 3 3 3 3 3 3 3 3 3 3 2 1 2
11 11 11 11 10 10 10 10 10 9 7 7 6 5 5 5 4 3 3 3 3 3 3 2 3 3 3 3 3 3 3 2 3 3 3 3 3 3 3 2 3 3 2
11 10 10 10 10 10 10 10 9 9 8 7 6 4 5 4 3 3 3 2 2 2 2 2 2 3 3 3 3 3 3 3 2 3 3 3 3 3 3 2 2 2 3
10 10 10 10 10 10 10 9 9 8 8 5 4 4 4 4 3 2 2 2 2 2 2 2 3 3 3 3 2 2 2 2 2 2 3 3 2 2 3 3 3 2 2
10 10 10 10 10 9 9 9 8 8 6 5 4 4 4 3 3 2 2 2 2 2 2 2 2 3 3 2 2 2 2 2 2 2 2 2 2 2 2 3 3 3 2
10 9 9 9 9 9 9 8 6 6 5 4 4 4 4 3 3 2 2 1 1 1 2 2 2 2 2 2 2 2 2 2 2 2 2 2 2 2 2 2 2 2 2
9 9 10 10 9 8 6 5 3 5 5 4 4 4 3 3 2 2 2 1 0 0 2 2 2 2 2 2 1 1 1 1 1 1 1 1 2 2 2 2 2 2 2
9 9 8 7 7 4 3 3 3 3 4 3 4 3 3 2 2 2 2 1 1 1 1 2 2 2 1 1 1 1 1 1 1 1 1 1 1 2 2 2 2 2 2
9 8 7 5 5 3 2 3 2 3 4 3 2 2 2 2 2 2 1 1 1 1 1 1 2 1 1 1 1 1 1 1 1 1 1 1 1 2 2 2 2 1 1
6 5 3 3 3 3 2 3 2 2 3 2 2 1 1 1 1 1 1 1 1 1 1 1 1 1 1 1 1 1 1 1 1 1 1 1 1 1 1 2 1 1 1
5 4 2 3 2 2 2 2 2 2 1 2 2 1 1 1 1 1 1 0 0 1 1 1 1 1 1 1 1 0 1 1 1 1 1 1 1 1 1 1 1 1 1
3 2 2 2 2 2 2 2 1 2 1 1 1 1 1 1 1 0 0 0 1 1 1 1 1 1 0 0 1 0 0 0 0 0 1 1 1 1 1 1 1 1 1

GFSGL_700_temp_174.txt.gz
Temp
17 16 16 16 15 15 15 15 14 14 14 14 13 13 13 12 10 8 9 9 9 8 8 8 7 6 6 5 5 4 4 4 5 5 5 5 5 5 4 4 3 3 4
17 16 16 16 16 15 15 15 15 14 14 14 13 13 13 12 10 9 9 9 9 8 8 7 7 6 6 6 5 4 4 4 4 5 5 5 5 4 4 3 1 0 1
17 17 16 16 16 16 16 15 15 15 14 14 14 13 13 11 10 10 10 11 9 9 8 7 6 6 5 4 4 4 4 4 4 4 5 5 4 4 4 3 0 0 2
18 17 17 17 16 16 16 15 15 15 14 14 14 13 12 11 11 11 11 10 9 10 7 6 7 5 4 4 4 5 4 4 4 4 4 4 4 4 3 2 2 1 2
18 17 17 16 16 16 15 15 14 14 13 14 14 14 12 11 11 11 10 11 10 8 6 6 6 5 4 4 4 4 4 4 4 4 4 4 4 4 4 2 1 2 2
18 17 17 16 16 15 14 14 14 13 13 14 13 12 12 12 11 9 9 9 9 8 6 6 5 4 4 4 4 4 3 4 4 4 4 4 4 4 3 1 -0 1 3
18 17 16 16 15 15 14 14 13 13 13 13 12 13 12 12 10 9 9 8 8 7 6 5 4 4 4 4 3 4 4 4 4 4 4 3 4 3 2 1 -0 0 2
18 18 17 16 15 14 14 14 13 13 13 13 13 12 12 11 10 10 9 8 6 6 4 4 4 3 4 3 3 4 4 4 4 3 3 3 3 2 2 1 -0 1 2
17 17 17 16 15 14 14 13 13 12 13 13 12 12 11 10 10 8 8 8 7 5 4 4 4 4 4 3 3 4 4 4 3 3 3 3 3 2 2 2 -0 2 3
17 17 17 17 15 14 13 12 12 12 13 13 12 11 10 10 9 8 7 6 5 4 4 3 4 4 3 3 3 4 4 4 4 4 3 3 2 2 1 2 -0 0 3
16 16 17 16 14 12 12 12 12 13 13 12 10 10 10 9 8 7 6 5 5 5 4 3 3 3 3 3 3 3 4 4 4 4 3 3 2 2 2 2 -0 -0 1
16 16 17 16 14 13 12 12 12 12 11 11 10 10 9 8 7 5 5 4 5 4 4 3 3 3 3 3 3 3 4 3 3 3 3 3 2 2 2 1 1 -0 -0
16 16 16 15 14 13 12 12 12 11 11 11 10 9 9 8 6 5 4 4 4 4 4 3 3 3 3 3 3 3 3 3 3 3 3 3 3 2 2 1 0 0 0
16 16 15 13 12 12 12 11 11 11 10 10 9 8 7 6 5 4 4 4 4 4 3 3 3 3 3 3 3 3 3 3 3 3 3 3 3 3 3 2 1 1 1
15 14 13 12 11 11 11 11 11 10 10 10 8 7 6 5 5 4 4 3 3 3 3 3 3 3 3 3 3 3 3 3 3 2 2 2 3 3 3 3 2 3 2
14 13 12 11 11 11 10 10 10 10 10 9 7 6 5 5 4 3 3 3 3 2 2 3 3 3 3 3 3 3 2 2 2 2 2 2 2 3 3 3 3 2 3
13 12 11 11 10 10 10 10 10 10 9 7 6 5 5 4 4 2 2 3 2 2 2 2 2 3 3 3 3 3 2 2 2 2 2 2 2 2 3 3 3 2 3
11 10 10 10 10 10 10 10 10 9 6 6 6 4 4 3 3 2 3 2 2 2 2 2 2 2 3 3 2 2 2 2 2 2 2 2 2 2 2 3 3 3 2
10 10 10 10 10 10 9 10 9 8 7 7 6 5 4 3 2 3 2 2 2 2 2 2 2 2 3 2 2 2 2 1 1 1 1 1 1 2 2 3 3 2 2
10 10 10 9 9 10 10 9 8 7 6 5 4 4 4 4 4 3 2 1 2 2 2 2 2 2 2 2 2 1 1 1 1 1 1 1 1 2 2 2 2 2 2
9 9 10 10 10 9 9 8 7 6 5 4 4 4 4 4 3 2 2 1 2 1 1 1 2 2 2 2 2 1 1 1 1 1 1 1 1 1 2 2 2 2 2
9 9 9 9 9 8 7 6 6 4 4 4 4 4 4 3 2 2 1 1 1 1 1 1 2 2 1 1 1 1 1 0 0 1 1 1 1 1 2 2 2 2 2
9 9 9 9 8 7 5 4 3 2 2 2 3 3 3 2 2 1 1 1 1 1 1 1 2 1 1 1 1 1 1 1 1 1 1 1 1 1 1 2 2 2 1
9 9 8 7 6 4 3 3 2 2 2 2 2 2 2 1 1 1 1 0 0 1 1 1 1 1 1 1 1 1 0 1 1 1 1 1 1 1 1 1 1 1 1
9 8 6 5 3 3 2 2 2 1 1 1 2 2 1 1 1 1 1 0 0 0 1 1 1 1 1 1 1 0 0 0 1 1 1 1 1 1 1 1 1 1 0
6 5 5 3 2 2 2 1 2 2 2 1 1 2 1 1 1 1 0 1 0 1 1 1 1 1 1 0 0 0 0 0 0 0 0 1 1 1 1 0 0 0 -0